Terug naar catalogus

NOAA 16 DEB

ActiefSSO
NORAD 41262·DEBRIS·🇺🇸 United States

Gelanceerd Sep 21, 2000 vanaf Vandenberg Space Force Base

Loading…

Volgende Passages (komende 24 uur)

TLE

VersSource: Space-Track

Epoch: Sep 13, 2026, 07:43 UTC

1 41262U 00055FN  26256.32203286  .00003873  00000-0  16379-2 0  9991
2 41262  98.7735 286.4017 0045121  58.7648 301.7941 14.25538874552166

Volg NOAA 16 DEB in realtime met AllMySat

Download on the App Store